Location: Helion Bumpstead
(52.0500°N, 0.4000°E)
Time: 20:54:33
(UTC+00:00)

ARIANE 5 R/B - Pass Details

Date: 15 November 2025
Orbit: 747 x 791 km, 98.8° (Epoch: 14 December)

Event Time Altitude Azimuth Distance (km) Brightness Sun altitude
Rises 06:30:57 0° 17° (NNE) 3,233 5.7 -7.5°
Reaches altitude 10° 06:33:16 10° 20° (NNE) 2,309 5.0 -7.1°
Maximum altitude 06:38:20 68° 103° (ESE) 832 3.0 -6.4°
Drops below altitude 10° 06:43:26 10° 187° (S) 2,321 5.2 -5.7°
Sets 06:45:46 0° 190° (S) 3,251 5.9 -5.4°
